Birchwood, AK

12:05 PM AKDT on March 30, 2017 (GMT -0800)
Birchwood

Weather History for PABV - January, 2013

Change the Weather History Date:

Wednesday, January 2, 2013

  Actual Average Record
Temperature  
Mean Temperature 34 °F -  
Max Temperature 39 °F 17 °F 43 °F (2016)
Min Temperature 28 °F 5 °F -20 °F (2009)
Degree Days  
Heating Degree Days 32    
Moisture  
Dew Point 27 °F    
Average Humidity 78    
Maximum Humidity 93    
Minimum Humidity 61    
Precipitation  
Precipitation 0.00 in - - ()
Sea Level Pressure  
Sea Level Pressure 29.44 in    
Wind  
Wind Speed 3 mph (ESE)    
Max Wind Speed 9 mph    
Max Gust Speed -    
Visibility 10 miles    
Events      
Averages and records for this station are not official NWS values.
T = Trace of Precipitation, MM = Missing Value Source: NWS Daily Summary

Daily Weather History Graph

Daily Weather History Graph

Search for Another Location

Airport or City:

Trip Planner

Search our weather history database for the weather conditions in past years. The results will help you decide how hot, cold, wet, or windy it might be!

Date:

Astronomy

Jan. 02, 2013 Rise Set
Actual Time 10:13 AM AKST 3:51 PM AKST
Civil Twilight 9:12 AM AKST 4:53 PM AKST
Nautical Twilight 8:12 AM AKST 5:52 PM AKST
Astronomical Twilight 7:18 AM AKST 6:46 PM AKST
Moon 11:30 PM AKST (1/2) 11:13 AM AKST (1/2)
Length of Visible Light 7h 41m
Length of Day
5h 38m
Waning Gibbous, 74% of the Moon is Illuminated
Jan 2
Waning Gibbous
Jan 4
Last Quarter
Jan 11
New
Jan 18
First Quarter
Jan 26
Full

Hourly Weather History & Observations

Time (AKST) Temp. Windchill Dew Point Humidity Pressure Visibility Wind Dir Wind Speed Gust Speed Precip Events Conditions
12:16 AM 39.2 °F 33.6 °F 26.6 °F 61% 29.26 in 10.0 mi NNE 8.1 mph - N/A   Overcast
12:36 AM 39.2 °F - 26.6 °F 61% 29.27 in 10.0 mi Calm Calm - N/A   Overcast
12:56 AM 39.2 °F 33.6 °F 26.6 °F 61% 29.28 in 10.0 mi NNE 8.1 mph - N/A   Overcast
1:16 AM 39.2 °F 33.6 °F 26.6 °F 61% 29.28 in 10.0 mi NE 8.1 mph - N/A   Overcast
1:36 AM 39.2 °F 34.2 °F 28.4 °F 65% 29.30 in 10.0 mi West 6.9 mph - N/A   Overcast
1:56 AM 39.2 °F - 26.6 °F 61% 29.30 in 10.0 mi Calm Calm - N/A   Overcast
2:16 AM 39.2 °F 37.0 °F 28.4 °F 65% 29.31 in 10.0 mi NNW 3.5 mph - N/A   Overcast
2:36 AM 37.4 °F - 28.4 °F 70% 29.32 in 10.0 mi Calm Calm - N/A   Overcast
2:56 AM 39.2 °F - 26.6 °F 61% 29.33 in 10.0 mi Calm Calm - N/A   Overcast
3:16 AM 37.4 °F - 26.6 °F 65% 29.35 in 10.0 mi Calm Calm - N/A   Overcast
3:36 AM 37.4 °F 34.9 °F 26.6 °F 65% 29.35 in 10.0 mi East 3.5 mph - N/A   Overcast
3:56 AM 35.6 °F 28.6 °F 28.4 °F 75% 29.35 in 10.0 mi ENE 9.2 mph - N/A   Mostly Cloudy
4:16 AM 37.4 °F - 26.6 °F 65% 29.35 in 10.0 mi Calm Calm - N/A   Mostly Cloudy
4:36 AM 37.4 °F 31.4 °F 28.4 °F 70% 29.36 in 10.0 mi North 8.1 mph - N/A   Mostly Cloudy
4:56 AM 37.4 °F 30.8 °F 28.4 °F 70% 29.36 in 10.0 mi ENE 9.2 mph - N/A   Mostly Cloudy
5:16 AM 39.2 °F 35.9 °F 26.6 °F 61% 29.37 in 10.0 mi SW 4.6 mph - N/A   Mostly Cloudy
5:36 AM 39.2 °F 35.0 °F 26.6 °F 61% 29.37 in 10.0 mi West 5.8 mph - N/A   Scattered Clouds
5:56 AM 35.6 °F 32.8 °F 30.2 °F 81% 29.38 in 10.0 mi NNW 3.5 mph - N/A   Mostly Cloudy
6:16 AM 37.4 °F - 28.4 °F 70% 29.38 in 10.0 mi Calm Calm - N/A   Overcast
6:36 AM 35.6 °F - 28.4 °F 75% 29.39 in 10.0 mi Calm Calm - N/A   Overcast
6:56 AM 35.6 °F - 28.4 °F 75% 29.39 in 10.0 mi Calm Calm - N/A   Mostly Cloudy
7:16 AM 35.6 °F 32.8 °F 26.6 °F 70% 29.37 in 10.0 mi East 3.5 mph - N/A   Scattered Clouds
7:36 AM 33.8 °F 28.6 °F 30.2 °F 87% 29.39 in 10.0 mi West 5.8 mph - N/A   Partly Cloudy
7:56 AM 35.6 °F 29.9 °F 28.4 °F 75% 29.40 in 10.0 mi East 6.9 mph - N/A   Partly Cloudy
8:16 AM 35.6 °F 29.9 °F 28.4 °F 75% 29.40 in 10.0 mi ENE 6.9 mph - N/A   Mostly Cloudy
8:36 AM 37.4 °F 33.8 °F 26.6 °F 65% 29.41 in 10.0 mi East 4.6 mph - N/A   Mostly Cloudy
8:56 AM 35.6 °F - 26.6 °F 70% 29.42 in 10.0 mi Calm Calm - N/A   Overcast
9:16 AM 35.6 °F 32.8 °F 26.6 °F 70% 29.42 in 10.0 mi ESE 3.5 mph - N/A   Overcast
9:36 AM 33.8 °F 26.4 °F 28.4 °F 81% 29.43 in 10.0 mi SW 9.2 mph - N/A   Overcast
9:56 AM 35.6 °F - 28.4 °F 75% 29.44 in 10.0 mi Calm Calm - N/A   Overcast
10:16 AM 35.6 °F 29.9 °F 28.4 °F 75% 29.45 in 10.0 mi West 6.9 mph - N/A   Overcast
10:36 AM 35.6 °F 31.7 °F 28.4 °F 75% 29.45 in 10.0 mi East 4.6 mph - N/A   Overcast
10:56 AM 33.8 °F - 28.4 °F 81% 29.46 in 10.0 mi Calm Calm - N/A   Mostly Cloudy
11:16 AM 35.6 °F - 28.4 °F 75% 29.46 in 10.0 mi Calm Calm - N/A   Mostly Cloudy
11:36 AM 35.6 °F 31.7 °F 28.4 °F 75% 29.47 in 10.0 mi SSW 4.6 mph - N/A   Scattered Clouds
11:56 AM 33.8 °F 30.8 °F 28.4 °F 81% 29.47 in 10.0 mi SSE 3.5 mph - N/A   Mostly Cloudy
12:16 PM 33.8 °F - 28.4 °F 81% 29.47 in 10.0 mi Calm Calm - N/A   Scattered Clouds
12:36 PM 35.6 °F - 28.4 °F 75% 29.47 in 10.0 mi Calm Calm - N/A   Scattered Clouds
12:56 PM 33.8 °F - 28.4 °F 81% 29.48 in 10.0 mi Calm Calm - N/A   Mostly Cloudy
1:16 PM 33.8 °F - 28.4 °F 81% 29.48 in 10.0 mi Calm Calm - N/A   Mostly Cloudy
1:36 PM 33.8 °F - 28.4 °F 81% 29.48 in 10.0 mi Calm Calm - N/A   Mostly Cloudy
1:56 PM 33.8 °F - 28.4 °F 81% 29.49 in 10.0 mi Calm Calm - N/A   Mostly Cloudy
2:16 PM 33.8 °F - 28.4 °F 81% 29.49 in 10.0 mi Calm Calm - N/A   Partly Cloudy
2:36 PM 33.8 °F - 28.4 °F 81% 29.48 in 10.0 mi Calm Calm - N/A   Partly Cloudy
2:56 PM 32.0 °F - 28.4 °F 87% 29.48 in 10.0 mi Calm Calm - N/A   Clear
3:16 PM 33.8 °F 29.6 °F 28.4 °F 81% 29.49 in 10.0 mi SSE 4.6 mph - N/A   Scattered Clouds
3:36 PM 32.0 °F 28.7 °F 28.4 °F 87% 29.49 in 10.0 mi SSE 3.5 mph - N/A   Mostly Cloudy
3:56 PM 30.2 °F - 28.4 °F 93% 29.49 in 10.0 mi Calm Calm - N/A   Mostly Cloudy
4:36 PM 32.0 °F - 28.4 °F 87% 29.50 in 10.0 mi Calm Calm - N/A   Scattered Clouds
4:56 PM 32.0 °F 25.6 °F 28.4 °F 87% 29.50 in 10.0 mi NE 6.9 mph - N/A   Partly Cloudy
5:16 PM 32.0 °F - 28.4 °F 87% 29.50 in 10.0 mi Calm Calm - N/A   Clear
5:36 PM 30.2 °F - 28.4 °F 93% 29.50 in 10.0 mi Calm Calm - N/A   Partly Cloudy
5:56 PM 30.2 °F - 26.6 °F 86% 29.50 in 10.0 mi Calm Calm - N/A   Scattered Clouds
6:16 PM 30.2 °F - 28.4 °F 93% 29.51 in 10.0 mi Calm Calm - N/A   Scattered Clouds
6:36 PM 28.4 °F - 26.6 °F 93% 29.51 in 10.0 mi Calm Calm - N/A   Mostly Cloudy
6:56 PM 30.2 °F - 28.4 °F 93% 29.51 in 10.0 mi Calm Calm - N/A   Overcast
7:16 PM 30.2 °F 26.7 °F 26.6 °F 86% 29.51 in 10.0 mi South 3.5 mph - N/A   Mostly Cloudy
7:36 PM 28.4 °F - 26.6 °F 93% 29.51 in 10.0 mi Calm Calm - N/A   Mostly Cloudy
7:56 PM 28.4 °F - 26.6 °F 93% 29.51 in 10.0 mi Calm Calm - N/A   Mostly Cloudy
8:16 PM 28.4 °F - 24.8 °F 86% 29.52 in 10.0 mi Calm Calm - N/A   Mostly Cloudy
8:36 PM 28.4 °F - 24.8 °F 86% 29.52 in 10.0 mi Calm Calm - N/A   Overcast
8:56 PM 28.4 °F - 24.8 °F 86% 29.53 in 10.0 mi Calm Calm - N/A   Scattered Clouds
9:16 PM 28.4 °F 24.6 °F 26.6 °F 93% 29.54 in 10.0 mi South 3.5 mph - N/A   Scattered Clouds
9:36 PM 30.2 °F - 26.6 °F 86% 29.54 in 10.0 mi Calm Calm - N/A   Overcast
9:56 PM 28.4 °F - 24.8 °F 86% 29.54 in 10.0 mi Calm Calm - N/A   Overcast
10:16 PM 30.2 °F 26.7 °F 24.8 °F 80% 29.55 in 10.0 mi SE 3.5 mph - N/A   Mostly Cloudy
10:36 PM 28.4 °F - 24.8 °F 86% 29.55 in 10.0 mi Calm Calm - N/A   Partly Cloudy
10:56 PM 28.4 °F - 24.8 °F 86% 29.55 in 10.0 mi Calm Calm - N/A   Mostly Cloudy
11:16 PM 28.4 °F - 24.8 °F 86% 29.56 in 10.0 mi Calm Calm - N/A   Overcast
11:36 PM 30.2 °F 26.7 °F 26.6 °F 86% 29.55 in 10.0 mi South 3.5 mph - N/A   Overcast
11:56 PM 30.2 °F 26.7 °F 26.6 °F 86% 29.55 in 10.0 mi SSW 3.5 mph - N/A   Overcast